Regional Weather Roundup
Issued by NWS

Home | Current Version | Previous Version | Graphics & Text | Print | Product List | Glossary On
Versions: 1 2 3 4 5 6 7 8 9 10 11 12 13 14 15 16 17 18 19 20 21 22 23 24 25 26 27 28 29 30 31 32 33 34 35 36 37 38 39 40 41 42 43 44 45 46 47 48 49 50
676
ASUS43 KMPX 241610
RWRMN
WEATHER ROUNDUP FOR MINNESOTA
NATIONAL WEATHER SERVICE TWIN CITIES/CHANHASSEN MN
1000 AM CST SAT FEB 24 2018


NOTE: "FAIR" INDICATES FEW OR NO CLOUDS BELOW 12,000 FEET WITH NO
SIGNIFICANT WEATHER AND/OR OBSTRUCTIONS TO VISIBILITY. N/A MEANS
CURRENT SKY AND/OR WEATHER CONDITIONS ARE NOT AVAILABLE.

MNZ060>063-068>070-241700-
   Twin Cities Metro

CITY           SKY/WX    TMP DP  RH WIND       PRES   REMARKS
TWIN CITIES    PTSUNNY   18  16  92 SE7       30.07F FOG     WCI   9
ST PAUL        FAIR      21  19  92 CALM      30.09F FOG
CRYSTAL        FAIR      17  14  88 E3        30.07F FOG
BLAINE         CLOUDY    16  12  86 E8        30.07F FOG     WCI   5
LAKEVILLE      LGT SNOW  10  10 100 CALM      30.06F
EDEN PRAIRIE   PTSUNNY   19  15  84 E7        30.06F FOG     WCI  10
SOUTH ST PAUL  FAIR      18  16  92 SE3       30.08F FOG
LAKE ELMO      FAIR     N/A N/A N/A E6        30.08F FOG
$$
MNZ001>005-007-008-013>017-022>024-027-028-241700-
   Northwest Minnesota

CITY           SKY/WX    TMP DP  RH WIND       PRES   REMARKS
BEMIDJI        FAIR       7   4  89 SE5       30.04F WCI  -2
HALLOCK        FAIR       9   3  78 S20G25    29.98F WCI -11
ROSEAU         FAIR      10   5  79 S12       30.00  WCI  -4
WARROAD        FAIR      12   7  79 SW7       30.00F WCI   2
THIEF RVR FALL FLURRIES   8   4  83 S9        30.02F WCI  -5
CROOKSTON      FAIR       7   1  78 S9        30.03F WCI  -7
FOSSTON        FAIR      10   7  85 S7        30.01F WCI   0
DETROIT LAKES  FAIR       9   5  85 SE7       30.03F WCI  -3
MOORHEAD       FAIR       3   0  85 S6        30.05S WCI  -8
PARK RAPIDS    FAIR       7   3  84 SE9       30.04F WCI  -7
MAHNOMEN       FAIR      11   8  87 SE7       30.02F WCI   1
$$
MNZ006-009>011-018-025>026-241700-
   North Central Minnesota

CITY           SKY/WX    TMP DP  RH WIND       PRES   REMARKS
BAUDETTE       FAIR       9   5  84 S8        30.01F WCI  -3
FLAG ISLAND    LGT SNOW   0  -4  85 S13       30.00F WCI -18
INTL FALLS     FAIR      12   7  80 SE6       30.05F WCI   3
WASKISH        PTSUNNY   16   9  73 SE5       30.03F WCI   9
LONGVILLE      FAIR      10   9  92 SE7       30.08S WCI   0
GRAND RAPIDS   FAIR      11   6  81 SE8       30.09F WCI  -1
CRANE LAKE     FAIR      10   7  85 CALM      30.12F
ORR            FAIR      14   7  73 CALM      30.03F
COOK             N/A     14   9  79 SE5       30.06F WCI   6
WALKER         FAIR       6   3  85 SE3       30.06F
$$
MNZ012-019>021-037-241700-
   Northeast Minnesota

CITY           SKY/WX    TMP DP  RH WIND       PRES   REMARKS
DULUTH         FAIR      17   8  67 SE13      30.09F WCI   4
ELY            FAIR      10   7  85 CALM      30.08F
HIBBING        FAIR       9   4  80 SE7       30.06F WCI  -2
EVELETH        FAIR      10   9  92 E6        30.09F WCI   1
DULUTH HARBOR  FAIR      16  12  86 CALM      30.17F
TWO HARBORS    FAIR      30  19  64 E6        30.09F WCI  24
SILVER BAY     FAIR      19  10  68 CALM      30.11F
GRAND MARAIS     N/A     21  10  62 E3        30.18F
G MARAIS ARPRT FAIR      18   3  53 SE5       30.09F WCI  11
$$
MNZ029>031-032-039>041-046>048-054>057-064-241700-
   West Central Minnesota

CITY           SKY/WX    TMP DP  RH WIND       PRES   REMARKS
FERGUS FALLS   FAIR      10   7  85 SE10      30.04F WCI  -3
WHEATON        CLOUDY     3   1  92 SE3       30.07F
MORRIS         CLOUDY     9   5  85 SE3       30.03F
ALEXANDRIA     PTSUNNY   11   6  81 SE12      30.04F WCI  -3
ELBOW LAKE     FAIR      10   8  91 SE10      30.03F WCI  -4
WADENA         FAIR       9   5  85 E5        30.04F WCI   0
GLENWOOD       FAIR      12  10  92 E9        30.05F WCI   0
APPLETON       CLOUDY     3  -2  78 CALM      30.06F
BENSON         CLOUDY     9   5  85 CALM      30.07F
ORTONVILLE     MOSUNNY    3   0  85 CALM      30.04F
MADISON        CLOUDY     7   1  78 CALM      30.07F
WILLMAR        FAIR      12  10  92 E5        30.07F WCI   4
$$
MNZ033>034-036-042>043-049>051-058-059-241700-
   Central Minnesota

CITY           SKY/WX    TMP DP  RH WIND       PRES   REMARKS
ST CLOUD       CLOUDY    15  13  91 E6        30.08F WCI   6
SAUK CENTRE    FAIR       9   7  90 E3        30.06F
PAYNESVILLE    CLOUDY    10   9  93 CALM      30.06F
AITKIN         FAIR       9   7  92 CALM      30.09F
PINE RIVER     FAIR       5   1  85 SE5       30.11F WCI  -4
BRAINERD       FAIR      12   6  77 E3        30.08F
STAPLES        FAIR       9   7  92 SE3       30.06F
LONG PRAIRIE   FAIR      12  10  92 CALM      30.06F
LITTLE FALLS   FAIR      10   5  79 CALM      30.09F
LITCHFIELD     FAIR      12  10  92 E3        30.07S
BUFFALO        FAIR      13  10  88 N3        30.09S FOG
MAPLE LAKE     PTSUNNY   16  15  95 N3        30.09R
HUTCHINSON     PTSUNNY   17  15  93 NE5       30.07S FOG     WCI  10
$$
MNZ037-044-045-052-053-241700-
   East Central Minnesota

CITY           SKY/WX    TMP DP  RH WIND       PRES   REMARKS
PRINCETON      FAIR      18  14  86 CALM      30.09F
CAMBRIDGE      LGT SNOW  14   7  73 CALM      30.09F
RUSH CITY      FAIR      13  10  90 CALM      30.11F
MOOSE LAKE     FAIR      12   9  85 CALM      30.11F
HINCKLEY       FAIR      18  16  93 CALM      30.11F
CLOQUET        FAIR      16   7  67 SE7       30.10S WCI   6
MCGREGOR       FAIR      14  12  92 S3        30.11F
$$
MNZ071>073-080-081-089-090-097-098-241700-
   Southwest Minnesota

CITY           SKY/WX    TMP DP  RH WIND       PRES   REMARKS
MONTEVIDEO     CLOUDY     7   3  85 CALM      30.07F
GRANITE FALLS  CLOUDY     6   3  87 CALM      30.07F
CANBY          CLOUDY     8   5  89 E3        30.03F
MARSHALL       CLOUDY    12   8  84 NE5       30.04F WCI   4
REDWOOD FALLS  CLOUDY     8   7  95 CALM      30.07S
OLIVIA         CLOUDY    18  16  93 SE3       30.06S
PIPESTONE      CLOUDY    16  14  93 CALM      29.97S
WORTHINGTON    FLURRIES  16  14  92 NE10      29.96F WCI   4
JACKSON        CLOUDY    12  10  92 CALM      29.98F
TRACY          CLOUDY    14  12  92 NE5       30.01F WCI   6
SLAYTON        CLOUDY    17  16  94 E3        29.99F
$$
MNZ065>067-074>077-082>085-091>093-241700-
   South Central Minnesota

CITY           SKY/WX    TMP DP  RH WIND       PRES   REMARKS
MANKATO        CLOUDY    19  17  92 SE9       30.07R FOG     WCI   8
NEW ULM        CLOUDY    10   7  85 CALM      30.06S
ST JAMES       LGT SNOW   9   7  92 CALM      30.05F
FAIRMONT       MOSUNNY   17  15  92 N5        30.02F WCI  10
GLENCOE        CLOUDY    19  19 100 E7        30.06S FOG     WCI   9
FARIBAULT      PTSUNNY   19  18  93 E10       30.04S FOG     WCI   8
OWATONNA       FAIR      21  19  93 E14G21    30.01S FOG     WCI   8
WASECA         CLOUDY    23  21  93 E12       30.04R FOG     WCI  12
ALBERT LEA     FAIR      23  21  93 SE9       30.01S FOG     WCI  13
$$
MNZ078>079-086>088-094>096-241700-
   Southeast Minnesota

CITY           SKY/WX    TMP DP  RH WIND       PRES   REMARKS
ROCHESTER      FAIR      22  20  92 E20G29    30.00F FOG     WCI   7
RED WING       FAIR      18  14  86 SE7       30.07F FOG     WCI   8
STANTON        LGT SNOW  20  18  92 E9        30.03F WCI   9
DODGE CENTER   FAIR      21  19  93 E8        30.02S FOG     WCI  12
WINONA         FAIR      19  19 100 CALM      30.10F FOG
AUSTIN         FAIR      23  21  93 SE13      30.01F FOG     WCI  11
PRESTON        PTSUNNY   25  23  93 SE14      30.04F FOG     WCI  13
$$
ABBREVIATIONS USED IN REMARKS
   TC - TEMPERATURES IN CELSIUS
  WCI - WIND CHILL INDEX
   HX - HEAT INDEX
  VSB - VISIBILITY
$$




USA.gov is the U.S. government's official web portal to all federal, state and local government web resources and services.